CW7769 Weather Reports


time (UTC)temp
C
wind
direction
speed
KPH
gust
KPH
rain 1hr
cm
rain 24hr
cm
rain mn
cm
humidity
%
barometer
mb
20260505102150 18 242 0.0 0.0 0.00 0.00 0.00 56 1008.5
20260505101158 18 242 0.0 4.8 0.00 0.00 0.00 56 1008.6
20260505100215 18 273 0.0 3.2 0.00 0.00 0.00 56 1008.7
20260505095143 18 172 0.0 0.0 0.00 0.00 0.00 57 1008.7
20260505094205 18 172 0.0 0.0 0.00 0.00 0.00 57 1008.8
20260505092020 17 227 0.0 0.0 0.00 0.00 0.00 60 1009.1
20260505090958 17 227 0.0 0.0 0.00 0.00 0.00 60 1009.1
20260505085938 16 227 0.0 0.0 0.00 0.00 0.00 61 1009.2
20260505084943 16 227 0.0 0.0 0.00 0.00 0.00 61 1009.3
20260505083933 16 227 0.0 0.0 0.00 0.00 0.00 61 1009.3
20260505081820 16 227 0.0 0.0 0.00 0.00 0.00 61 1009.5
20260505080753 16 227 0.0 0.0 0.00 0.00 0.00 61 1009.4
20260505075728 16 227 0.0 0.0 0.00 0.00 0.00 61 1009.5
20260505074737 16 227 0.0 0.0 0.00 0.00 0.00 61 1009.5
20260505073751 16 227 0.0 0.0 0.00 0.00 0.00 62 1009.5
20260505072719 16 227 0.0 0.0 0.00 0.00 0.00 62 1009.5
20260505071646 15 227 0.0 0.0 0.00 0.00 0.00 64 1009.6
20260505070646 15 227 0.0 0.0 0.00 0.00 0.00 65 1009.6
20260505065644 15 227 0.0 0.0 0.00 0.00 0.00 65 1009.7
20260505064636 15 227 0.0 0.0 0.00 0.00 0.00 66 1009.7
20260505062540 14 227 0.0 0.0 0.00 0.00 0.00 67 1009.8
20260505061545 13 227 0.0 0.0 0.00 0.00 0.00 67 1009.8
20260505055415 13 227 0.0 0.0 0.00 0.00 0.00 67 1009.9
20260505053256 13 227 0.0 0.0 0.00 0.00 0.00 67 1009.8
20260505051208 13 227 0.0 0.0 0.00 0.00 0.00 66 1009.7
20260505050140 13 227 0.0 0.0 0.00 0.00 0.00 66 1009.6
20260505040854 13 227 0.0 0.0 0.00 0.00 0.00 65 1009.7
20260505035907 13 227 0.0 0.0 0.00 0.00 0.00 64 1009.7
20260505034844 13 227 0.0 0.0 0.00 0.00 0.00 64 1009.7
20260505032727 13 227 0.0 0.0 0.00 0.00 0.00 63 1009.8
20260505031746 13 227 0.0 0.0 0.00 0.00 0.00 63 1009.9
20260505030743 13 227 0.0 0.0 0.00 0.00 0.00 63 1010.0
20260505025735 14 227 0.0 0.0 0.00 0.00 0.00 62 1010.2
20260505024706 14 227 0.0 0.0 0.00 0.00 0.00 62 1010.2
20260505023720 14 227 0.0 0.0 0.00 0.00 0.00 62 1010.3
20260505022714 14 227 0.0 0.0 0.00 0.00 0.00 62 1010.4
20260505021730 14 227 0.0 0.0 0.00 0.00 0.00 62 1010.6
20260505020710 14 227 0.0 0.0 0.00 0.00 0.00 62 1010.6
20260505014534 14 227 0.0 0.0 0.00 0.00 0.00 61 1010.9
20260505013523 14 227 0.0 0.0 0.00 0.00 0.00 61 1010.9
20260505011323 14 227 0.0 0.0 0.00 0.00 0.00 61 1011.1
20260505010302 15 227 0.0 0.0 0.00 0.00 0.00 61 1011.4
20260505005233 15 227 0.0 0.0 0.00 0.00 0.00 61 1011.4
20260505004243 15 227 0.0 0.0 0.00 0.00 0.00 60 1011.5
20260505003209 15 227 0.0 0.0 0.00 0.00 0.00 60 1011.4
20260505002225 15 227 0.0 0.0 0.00 0.00 0.00 59 1011.4
20260505001210 15 227 0.0 0.0 0.00 0.00 0.00 59 1011.3
20260504233920 15 227 0.0 0.0 0.00 0.00 0.00 58 1011.8
20260504232857 15 227 0.0 0.0 0.00 0.00 0.00 58 1011.9
20260504231851 15 227 0.0 0.0 0.00 0.00 0.00 58 1012.0
20260504230829 15 227 0.0 0.0 0.00 0.00 0.00 57 1012.2
20260504225847 15 227 0.0 0.0 0.00 0.00 0.00 57 1012.2
20260504224900 15 227 0.0 0.0 0.00 0.00 0.00 57 1012.3
20260504223921 16 227 0.0 0.0 0.00 0.00 0.00 56 1012.4
20260504222847 16 227 0.0 0.0 0.00 0.00 0.00 55 1012.5
20260504221843 16 227 0.0 0.0 0.00 0.00 0.00 55 1012.6
20260504220825 16 227 0.0 0.0 0.00 0.00 0.00 55 1012.6
20260504215756 16 227 0.0 0.0 0.00 0.00 0.00 55 1012.6
20260504214807 16 227 0.0 0.0 0.00 0.00 0.00 55 1012.7
20260504213759 16 227 0.0 0.0 0.00 0.00 0.00 55 1012.7
20260504212748 16 227 0.0 0.0 0.00 0.00 0.00 54 1012.7
20260504211810 16 227 0.0 0.0 0.00 0.00 0.00 54 1012.7
20260504210813 16 227 0.0 0.0 0.00 0.00 0.00 54 1012.7
20260504205822 16 227 0.0 0.0 0.00 0.00 0.00 54 1012.7
20260504204835 16 227 0.0 0.0 0.00 0.00 0.00 54 1012.7
20260504201555 17 227 0.0 0.0 0.00 0.00 0.00 53 1012.7
20260504200544 17 227 0.0 0.0 0.00 0.00 0.00 52 1012.7
20260504194434 17 227 0.0 0.0 0.00 0.00 0.00 51 1012.7
20260504192316 17 227 0.0 0.0 0.00 0.00 0.00 50 1012.7
20260504191241 18 227 0.0 0.0 0.00 0.00 0.00 49 1012.7
20260504190239 18 227 0.0 0.0 0.00 0.00 0.00 49 1012.7
20260504184045 18 227 0.0 0.0 0.00 0.00 0.00 48 1012.8
20260504183053 18 227 0.0 0.0 0.00 0.00 0.00 48 1012.8
20260504182056 18 210 0.0 3.2 0.00 0.00 0.00 47 1012.8
20260504180000 19 201 1.6 6.4 0.00 0.00 0.00 46 1012.8
20260504174951 19 206 1.6 9.7 0.00 0.00 0.00 45 1012.6
20260504174002 19 207 3.2 9.7 0.00 0.00 0.00 45 1012.5
20260504172949 20 205 1.6 6.4 0.00 0.00 0.00 44 1012.5
20260504171948 20 227 1.6 8.0 0.00 0.00 0.00 44 1012.4
20260504140955 22 273 1.6 11.3 0.00 0.00 0.00 35 1012.8